TimePDT,TemperatureF,Dew PointF,Humidity,Sea Level PressureIn,VisibilityMPH,Wind Direction,Wind SpeedMPH,Gust SpeedMPH,PrecipitationIn,Events,Conditions,WindDirDegrees,DateUTC
12:53 AM,55.0,50.0,83,30.14,10.0,South,5.8,-,N/A,,Overcast,190,2013-06-21 07:53:00
1:38 AM,55.4,50.0,82,30.12,6.0,SSW,5.8,-,0.00,Rain,Light Rain,210,2013-06-21 08:38:00
1:53 AM,54.0,50.0,86,30.14,6.0,SSW,5.8,-,0.00,Rain,Light Rain,200,2013-06-21 08:53:00
2:36 AM,53.6,51.8,94,30.13,5.0,Calm,Calm,-,0.00,,Overcast,0,2013-06-21 09:36:00
2:53 AM,54.0,51.1,90,30.14,3.0,Calm,Calm,-,0.01,Rain,Light Rain,0,2013-06-21 09:53:00
3:37 AM,53.6,51.8,94,30.13,10.0,SSE,4.6,-,0.00,,Overcast,150,2013-06-21 10:37:00
3:53 AM,54.0,51.1,90,30.15,7.0,SSE,3.5,-,0.00,,Overcast,150,2013-06-21 10:53:00
4:53 AM,54.0,51.1,90,30.15,3.0,South,5.8,-,0.00,,Overcast,170,2013-06-21 11:53:00
5:14 AM,53.6,51.8,94,30.13,3.0,SSE,3.5,-,N/A,,Overcast,160,2013-06-21 12:14:00
5:43 AM,53.6,51.8,94,30.14,3.0,SSE,4.6,-,N/A,,Overcast,160,2013-06-21 12:43:00
5:53 AM,54.0,51.1,90,30.16,2.0,South,5.8,-,N/A,,Overcast,170,2013-06-21 12:53:00
6:09 AM,53.6,51.8,94,30.14,2.0,South,3.5,-,N/A,,Overcast,170,2013-06-21 13:09:00
6:53 AM,54.0,51.1,90,30.17,3.0,South,5.8,-,N/A,,Overcast,170,2013-06-21 13:53:00
7:53 AM,55.0,52.0,89,30.19,3.0,SSW,3.5,-,N/A,,Overcast,210,2013-06-21 14:53:00
8:53 AM,55.9,51.1,84,30.20,5.0,SW,4.6,-,N/A,,Haze,220,2013-06-21 15:53:00
9:49 AM,57.2,51.8,82,30.18,7.0,SE,3.5,-,N/A,,Overcast,140,2013-06-21 16:49:00
9:53 AM,57.0,51.1,81,30.20,7.0,SSE,3.5,-,N/A,,Overcast,150,2013-06-21 16:53:00
10:08 AM,57.2,51.8,82,30.18,10.0,SSE,4.6,-,N/A,,Overcast,150,2013-06-21 17:08:00
10:46 AM,59.0,53.6,82,30.18,10.0,SW,4.6,-,N/A,,Mostly Cloudy,220,2013-06-21 17:46:00
10:53 AM,60.1,52.0,75,30.20,10.0,South,3.5,-,N/A,,Mostly Cloudy,180,2013-06-21 17:53:00
11:11 AM,60.8,51.8,72,30.18,10.0,SW,3.5,-,N/A,,Mostly Cloudy,230,2013-06-21 18:11:00
11:53 AM,64.0,50.0,60,30.20,10.0,Calm,Calm,-,N/A,,Mostly Cloudy,0,2013-06-21 18:53:00
12:53 PM,64.0,48.9,58,30.19,10.0,SW,4.6,-,N/A,,Mostly Cloudy,220,2013-06-21 19:53:00
1:53 PM,66.9,46.9,49,30.19,10.0,Calm,Calm,-,N/A,,Mostly Cloudy,0,2013-06-21 20:53:00
2:53 PM,69.1,46.9,45,30.19,10.0,Variable,4.6,-,N/A,,Mostly Cloudy,0,2013-06-21 21:53:00
3:53 PM,68.0,46.9,47,30.19,10.0,North,8.1,-,N/A,,Mostly Cloudy,350,2013-06-21 22:53:00
4:53 PM,68.0,46.0,45,30.18,10.0,West,5.8,-,N/A,,Mostly Cloudy,280,2013-06-21 23:53:00
5:53 PM,68.0,46.0,45,30.17,10.0,NNE,3.5,-,N/A,,Mostly Cloudy,30,2013-06-22 00:53:00
6:53 PM,66.0,46.9,50,30.17,10.0,NE,6.9,-,N/A,,Scattered Clouds,50,2013-06-22 01:53:00
7:53 PM,66.9,46.9,49,30.16,10.0,ENE,3.5,-,N/A,,Scattered Clouds,60,2013-06-22 02:53:00
8:53 PM,64.9,46.9,52,30.16,10.0,Calm,Calm,-,N/A,,Scattered Clouds,0,2013-06-22 03:53:00
9:53 PM,64.0,46.9,54,30.17,10.0,Calm,Calm,-,N/A,,Scattered Clouds,0,2013-06-22 04:53:00
10:53 PM,59.0,48.9,69,30.17,10.0,WSW,5.8,-,N/A,,Scattered Clouds,240,2013-06-22 05:53:00
11:53 PM,57.9,48.9,72,30.16,10.0,Calm,Calm,-,N/A,,Scattered Clouds,0,2013-06-22 06:53:00